Wetbulb
69.79 69.86 70.27 71.01 70.30 70.16 69.84 69.17 68.02 65.50 66.16 66.58 66.78 68.89 69.30 70.75 72.32 73.80 74.01 71.19 70.53 68.49 67.54 66.96 66.67 66.72 66.76 67.08 67.31 67.36 67.38 67.50 67.79 67.95 68.42 69.40 70.22 70.98
70.18 70.26 70.71 70.85 70.95 70.82 70.70 70.45 69.44 68.22 65.80 68.98 66.51 68.98 70.26 71.06 70.63 72.33 72.58 69.75 69.52 68.13 66.65 65.39 65.45 65.36 65.35 65.51 66.14 66.36 66.34 66.17 66.26 66.98 67.59 67.84 68.10 69.90
70.35 70.06 70.07 70.58 70.48 70.16 69.93 69.60 68.51 68.67 66.37 68.55 68.33 69.47 70.05 70.63 71.33 72.50 71.83 70.70 69.37 67.57 66.33 65.41 64.44 64.24 64.47 64.47 64.69 63.67 63.58 63.83 64.02 64.92 67.07 67.97 68.49 69.64
69.21 69.96 70.09 70.65 70.24 70.29 68.87 68.53 67.70 67.72 67.56 65.97 66.22 68.08 69.12 69.88 70.44 69.81 68.17 68.31 67.86 67.90 66.28 65.17 64.23 63.52 62.87 62.41 61.48 61.24 61.05 61.74 62.34 63.54 65.82 67.40 68.42 69.39
69.85 69.96 70.54 70.65 69.80 69.66 69.01 67.75 67.05 67.59 66.60 65.95 66.09 67.66 68.17 68.33 67.74 67.24 67.04 66.72 66.54 67.52 66.53 65.38 64.17 63.45 62.54 61.84 59.86 60.11 58.67 58.47 59.30 60.27 62.46 64.89 66.19 67.99
70.90 71.11 70.98 70.63 70.33 69.68 69.14 67.88 67.59 67.20 66.93 66.64 66.80 66.22 67.05 68.35 68.11 66.79 66.06 66.93 66.72 67.27 67.29 65.80 65.22 64.84 64.19 62.94 61.89 61.88 59.11 57.04 56.30 57.21 58.31 59.94 61.37 63.95
71.19 70.69 70.84 70.87 68.76 68.98 69.51 68.83 68.01 65.89 65.59 65.07 64.39 64.87 65.36 65.46 64.89 67.16 66.84 67.05 66.63 67.61 67.81 67.51 66.72 66.08 66.22 64.28 64.93 63.83 61.19 59.00 57.57 56.28 56.50 56.68 57.23 60.13
70.66 70.74 70.45 68.92 68.20 65.22 65.75 65.77 68.03 67.90 65.60 64.99 64.51 64.04 65.26 66.44 67.34 66.12 65.83 64.69 63.68 67.68 66.11 66.02 67.25 66.76 66.65 65.84 64.33 62.47 60.27 59.00 58.09 57.16 56.46 57.23 57.04 58.13
71.06 71.15 69.49 70.08 67.81 69.80 64.74 63.96 64.35 64.05 65.98 68.33 67.05 67.16 67.38 67.92 67.52 64.48 64.79 64.08 63.99 65.20 65.87 63.96 66.11 65.73 67.39 65.88 61.83 60.69 59.43 57.73 57.55 57.19 56.46 56.66 57.23 56.50
70.65 70.76 70.22 70.01 68.68 69.12 69.21 67.94 68.08 68.38 68.11 68.29 69.50 69.76 70.01 69.60 68.30 67.70 66.60 65.67 65.42 65.07 66.49 62.59 65.84 65.38 66.82 66.64 61.27 59.82 58.63 57.37 56.82 56.10 55.90 55.94 55.59 55.23
70.10 70.53 70.28 69.77 64.43 61.02 68.90 68.29 68.15 68.03 63.73 61.87 63.03 62.51 61.22 61.03 64.91 66.27 65.00 63.80 62.61 63.21 65.57 64.80 64.86 65.08 65.43 65.79 66.22 59.50 58.39 56.30 55.57 55.55 55.72 55.39 53.42 53.76
66.91 68.85 62.22 67.11 59.82 57.23 68.66 68.26 66.58 67.80 67.95 67.70 66.58 63.85 61.74 63.84 60.36 68.24 67.21 63.86 62.84 61.41 65.22 64.27 64.53 64.86 63.25 65.59 65.64 65.33 63.14 54.83 53.76 53.58 54.31 53.78 52.51 60.73
64.67 64.51 66.55 58.13 55.59 53.60 56.10 68.00 66.93 68.47 65.38 67.62 67.31 67.12 66.99 66.31 64.87 66.18 67.92 66.77 64.38 63.11 65.59 65.55 64.26 64.49 64.77 64.03 63.74 64.46 63.36 60.57 60.06 56.58 50.70 51.61 51.06 58.89
65.10 65.71 64.17 55.05 51.97 52.69 55.68 55.23 53.78 57.89 67.33 67.23 66.78 66.60 66.46 66.27 66.28 65.88 66.37 67.06 68.52 68.31 67.15 67.03 64.76 64.35 63.88 63.30 62.41 63.04 63.29 63.86 62.91 61.18 60.13 54.10 50.84 53.04
64.57 59.94 55.59 53.42 53.42 56.14 54.14 55.19 55.59 62.64 64.46 65.18 66.03 66.78 67.68 68.10 66.98 66.40 66.45 66.72 66.33 67.25 66.80 66.68 66.37 65.73 64.88 63.77 63.65 62.39 62.11 62.95 62.96 62.63 61.48 59.80 58.78 56.80
58.09 58.41 56.60 55.41 55.17 55.92 57.47 58.66 60.78 62.37 64.47 64.87 65.05 66.58 67.14 65.85 64.53 66.29 65.47 65.08 63.49 63.57 65.73 65.96 66.47 66.45 63.77 65.26 65.35 63.61 63.35 62.20 62.84 63.09 63.12 62.47 60.89 59.73
55.54 56.32 56.78 56.80 57.76 58.53 59.01 61.02 61.77 61.29 61.13 61.77 62.75 63.67 63.67 64.02 64.42 66.02 64.77 64.19 62.55 62.82 63.21 64.24 64.95 65.37 65.58 65.93 63.62 65.31 64.27 63.19 63.24 62.36 62.67 61.71 62.06 61.58
55.65 57.45 57.22 57.32 57.89 58.39 58.80 60.06 61.66 61.60 61.07 61.25 62.34 62.85 62.79 63.17 62.23 63.90 63.46 62.91 62.43 62.92 62.70 63.72 63.31 62.33 62.49 63.58 64.02 63.91 65.15 63.83 64.39 62.44 62.19 60.80 60.54 62.10
57.66 58.11 57.70 57.76 57.81 58.17 58.99 59.36 60.44 61.41 62.77 62.40 61.53 62.28 61.48 61.76 61.56 62.32 62.70 62.20 62.30 62.33 63.35 63.47 63.08 61.64 58.91 58.29 62.78 59.68 64.11 63.59 64.32 62.09 61.46 60.96 60.77 62.59
57.58 56.56 55.80 56.14 56.84 57.30 57.81 57.89 58.23 59.49 60.62 61.65 61.61 61.75 62.09 61.57 61.73 61.34 61.71 61.80 62.16 61.69 61.91 62.87 62.99 62.57 60.54 59.91 60.50 53.06 48.45 58.39 61.93 61.55 61.00 61.92 62.15 59.21
56.52 56.20 56.56 56.46 56.82 57.18 57.21 57.23 57.57 58.09 58.49 59.66 60.93 61.31 61.63 60.95 60.16 60.57 60.84 54.32 55.96 60.26 59.88 59.78 56.40 56.28 59.14 59.46 55.82 52.22 48.88 49.17 50.69 52.44 54.27 55.13 57.67 60.32
56.82 56.52 56.52 55.76 55.73 56.38 56.40 56.82 56.62 55.98 56.34 56.56 57.06 57.57 57.79 58.17 58.67 58.67 58.63 57.49 56.94 56.74 56.20 56.22 58.48 58.54 56.60 56.62 53.63 51.86 51.84 52.70 51.23 50.59 49.38 49.19 52.25 55.90
55.80 56.40 56.58 55.73 55.27 56.40 56.56 56.34 55.92 55.74 56.82 57.16 57.40 56.52 57.72 56.46 56.32 56.58 56.12 56.58 55.88 55.94 56.22 55.72 55.26 56.20 55.16 54.88 53.23 52.59 51.77 51.61 50.92 50.11 49.99 49.04 49.05 49.63
MSLP
1013.30 1013.53 1013.75 1014.01 1014.22 1014.39 1014.74 1015.02 1015.38 1015.48 1014.94 1014.44 1014.39 1013.98 1014.00 1014.10 1014.05 1014.12 1014.23 1014.44 1014.69 1014.93 1015.23 1015.84 1016.00 1016.25 1016.45 1016.62 1016.76 1016.75 1016.66 1016.46 1016.18 1015.97 1015.82 1015.66 1015.49 1015.41
1012.80 1013.13 1013.42 1013.52 1013.71 1013.90 1014.04 1014.27 1014.59 1014.69 1014.42 1013.99 1014.05 1013.85 1013.90 1013.81 1013.74 1013.90 1014.24 1014.41 1014.14 1014.67 1014.98 1015.51 1016.01 1016.24 1016.44 1016.49 1016.44 1016.43 1016.38 1016.15 1015.79 1015.52 1015.30 1015.09 1014.95 1014.85
1012.26 1012.53 1012.63 1012.87 1013.18 1013.44 1013.67 1013.75 1013.98 1014.27 1014.17 1013.89 1013.81 1013.72 1013.73 1013.69 1013.57 1013.68 1014.01 1014.27 1014.34 1014.59 1014.68 1015.34 1015.96 1016.31 1016.34 1016.37 1016.26 1016.29 1016.20 1015.97 1015.69 1015.22 1014.91 1014.65 1014.51 1014.50
1011.35 1011.81 1012.03 1012.41 1012.60 1012.91 1013.07 1013.21 1013.35 1013.59 1013.91 1013.78 1013.66 1013.51 1013.54 1013.59 1013.56 1013.64 1014.03 1014.29 1014.44 1014.73 1014.93 1015.26 1015.67 1015.91 1015.95 1016.15 1016.08 1016.05 1016.03 1015.76 1015.47 1014.93 1014.63 1014.39 1014.32 1014.48
1010.58 1011.11 1011.40 1011.74 1011.88 1012.32 1012.57 1012.57 1012.78 1013.08 1013.41 1013.73 1013.53 1013.45 1013.48 1013.63 1013.70 1013.84 1013.83 1014.15 1014.43 1014.61 1014.78 1015.01 1015.30 1015.51 1015.47 1015.62 1015.59 1015.67 1015.82 1015.66 1015.33 1014.84 1014.59 1014.30 1014.33 1014.37
1009.78 1010.40 1010.83 1011.12 1011.36 1011.46 1011.88 1011.86 1012.15 1012.54 1013.14 1013.30 1013.34 1013.23 1013.04 1013.17 1013.26 1013.46 1013.64 1013.81 1014.15 1014.13 1014.19 1014.45 1014.82 1014.85 1014.96 1015.09 1015.15 1015.38 1015.45 1015.33 1015.19 1014.88 1014.73 1014.46 1014.41 1014.41
1009.13 1009.41 1009.97 1010.48 1010.60 1010.95 1011.11 1011.55 1011.83 1012.07 1012.41 1012.92 1013.12 1013.11 1012.84 1013.05 1013.15 1013.20 1013.36 1013.50 1013.60 1013.61 1013.73 1013.92 1014.12 1014.40 1014.38 1014.59 1014.81 1014.99 1015.11 1015.05 1014.90 1014.83 1014.87 1014.74 1014.53 1014.38
1008.33 1008.54 1008.94 1009.82 1010.20 1010.41 1010.54 1010.49 1011.33 1011.51 1011.66 1012.14 1012.43 1012.46 1012.34 1012.35 1012.53 1012.92 1012.95 1012.90 1013.12 1013.03 1013.28 1013.39 1013.63 1013.76 1013.58 1013.63 1013.92 1014.37 1014.69 1014.77 1014.84 1014.88 1014.91 1014.99 1015.01 1014.86
1008.49 1007.98 1007.99 1008.50 1009.56 1009.82 1010.28 1010.40 1010.32 1010.90 1010.75 1011.07 1011.56 1011.58 1011.60 1011.59 1012.00 1012.51 1012.72 1012.77 1012.68 1012.99 1013.01 1013.02 1013.17 1012.94 1012.67 1012.93 1013.21 1013.66 1013.98 1014.27 1014.53 1014.69 1014.91 1014.97 1015.14 1015.19
1007.98 1007.53 1007.73 1007.74 1008.61 1009.04 1009.67 1010.32 1010.03 1010.12 1010.51 1010.45 1010.56 1010.66 1010.93 1011.11 1011.41 1011.61 1012.13 1012.47 1012.60 1012.48 1012.49 1012.51 1012.30 1012.27 1012.31 1012.36 1012.50 1012.84 1013.36 1013.85 1014.22 1014.50 1014.74 1014.93 1015.17 1015.50
1007.25 1007.13 1007.54 1007.24 1007.55 1008.24 1008.91 1009.65 1009.82 1009.42 1009.53 1009.72 1009.70 1010.19 1010.44 1010.67 1010.82 1011.55 1011.69 1011.99 1012.05 1012.02 1012.25 1012.18 1011.69 1011.71 1011.91 1011.79 1011.82 1012.03 1012.26 1013.11 1013.45 1013.90 1014.67 1015.10 1015.24 1015.55
1006.62 1006.59 1008.14 1007.41 1007.19 1007.84 1008.34 1008.75 1009.25 1008.99 1009.14 1009.44 1009.69 1010.04 1010.39 1010.48 1010.60 1010.69 1010.88 1011.30 1011.55 1011.79 1011.44 1011.87 1011.57 1011.56 1011.53 1011.40 1011.50 1011.69 1012.07 1012.18 1012.73 1013.11 1013.28 1013.89 1014.29 1014.99
1006.84 1007.30 1007.00 1007.06 1007.52 1007.58 1008.10 1008.23 1008.35 1008.25 1008.41 1008.69 1008.80 1009.24 1009.69 1010.05 1010.09 1010.08 1009.98 1009.90 1010.22 1010.40 1010.71 1011.01 1011.02 1011.17 1011.22 1011.09 1011.10 1011.29 1011.79 1011.98 1012.22 1012.39 1012.82 1012.99 1013.83 1014.14
1006.47 1006.69 1006.73 1007.27 1007.10 1007.30 1008.01 1008.11 1008.22 1008.34 1008.22 1008.24 1008.33 1008.48 1008.83 1008.94 1008.86 1009.29 1009.49 1009.39 1009.33 1009.58 1009.90 1010.21 1010.39 1010.61 1010.69 1010.91 1011.03 1010.95 1011.09 1011.52 1011.67 1012.11 1012.59 1013.26 1013.67 1013.79
1005.92 1006.52 1006.39 1005.63 1008.16 1008.17 1007.26 1007.43 1007.73 1007.87 1007.80 1008.03 1007.90 1007.83 1008.07 1008.35 1008.56 1008.74 1008.76 1008.87 1009.10 1009.11 1009.34 1009.50 1009.53 1009.88 1009.87 1009.80 1010.00 1010.61 1010.81 1010.55 1010.77 1011.51 1012.00 1012.44 1012.94 1013.34
1006.41 1006.45 1007.15 1007.76 1008.08 1008.15 1007.95 1007.63 1007.67 1007.66 1007.44 1006.88 1007.45 1007.56 1007.80 1008.20 1008.25 1008.17 1008.42 1008.53 1008.59 1008.64 1008.71 1008.66 1008.85 1009.07 1009.14 1009.05 1009.37 1009.39 1009.63 1010.04 1010.29 1010.51 1010.94 1011.40 1012.00 1012.45
1007.12 1007.18 1006.55 1007.23 1007.39 1007.38 1007.57 1007.40 1007.33 1007.21 1007.07 1007.08 1006.89 1007.23 1007.63 1007.83 1007.72 1007.73 1007.96 1008.17 1007.97 1007.82 1007.75 1007.92 1007.92 1008.08 1008.26 1008.32 1008.37 1008.46 1008.83 1009.12 1009.37 1009.62 1010.02 1010.40 1010.76 1010.95
1007.77 1007.63 1007.20 1006.97 1007.01 1007.20 1007.34 1007.26 1007.35 1006.97 1006.78 1006.87 1006.63 1006.86 1007.13 1007.24 1007.34 1007.27 1007.28 1007.54 1007.17 1007.06 1007.20 1006.96 1007.15 1007.34 1007.28 1007.19 1007.19 1007.46 1007.93 1008.02 1008.43 1008.76 1009.19 1009.39 1009.44 1009.38
1008.01 1007.61 1007.74 1007.42 1007.11 1006.87 1007.17 1007.17 1006.90 1006.89 1006.62 1006.64 1006.28 1006.43 1006.82 1006.88 1006.87 1006.91 1006.88 1006.95 1006.79 1006.48 1006.32 1006.46 1006.28 1006.31 1006.20 1005.82 1006.30 1006.26 1006.98 1007.29 1007.63 1007.80 1008.00 1008.20 1008.23 1008.20
1008.18 1007.94 1007.72 1007.76 1007.44 1007.10 1007.03 1007.13 1006.88 1006.73 1006.64 1006.37 1006.15 1006.26 1006.37 1006.29 1006.13 1006.15 1006.31 1006.39 1006.26 1006.08 1005.73 1005.51 1005.19 1005.09 1005.23 1005.01 1005.82 1007.33 1007.16 1006.89 1006.96 1007.08 1007.31 1007.22 1006.86 1007.13
1008.21 1008.22 1007.89 1007.58 1007.35 1007.13 1006.90 1006.95 1007.07 1006.99 1006.85 1006.56 1006.32 1006.14 1005.99 1005.93 1005.89 1005.76 1005.85 1005.81 1005.79 1005.94 1005.77 1005.67 1005.47 1005.33 1005.25 1005.42 1006.15 1007.12 1007.98 1006.97 1007.19 1007.75 1007.44 1007.69 1007.30 1006.85
1008.17 1008.12 1008.14 1007.97 1007.74 1007.79 1007.71 1007.38 1007.23 1007.27 1007.23 1006.81 1006.56 1006.30 1006.07 1005.94 1005.84 1005.88 1005.76 1005.70 1005.57 1005.65 1005.77 1005.78 1005.77 1005.55 1005.35 1005.70 1006.60 1007.32 1008.07 1008.40 1008.10 1008.36 1008.76 1008.64 1008.56 1007.57
1008.14 1008.15 1007.96 1007.97 1008.06 1007.95 1007.76 1007.62 1007.43 1007.28 1007.23 1006.98 1006.67 1006.52 1006.36 1006.22 1005.91 1005.77 1005.71 1005.66 1005.84 1005.69 1005.71 1005.91 1006.04 1005.94 1006.05 1006.39 1006.97 1007.62 1008.29 1008.63 1008.89 1008.64 1008.72 1008.65 1008.49 1008.51
Wind_Speed
10 10 9 7 7 7 6 5 5 4 4 3 3 3 3 4 6 4 4 7 7 5 4 5 4 6 6 7 8 8 9 10 10 11 12 13 14 13
7 9 8 6 6 5 6 6 7 7 5 3 3 2 3 4 5 5 4 8 10 8 8 5 6 7 8 8 7 8 9 10 11 12 13 12 10 10
8 9 10 8 6 6 6 6 7 6 7 2 3 1 3 4 4 3 3 3 4 8 9 7 7 7 7 8 7 7 9 11 14 14 13 10 7 7
10 9 9 6 9 7 6 8 7 7 5 6 2 3 5 4 3 3 2 2 2 7 7 7 9 8 6 6 7 7 9 11 13 12 11 6 7 7
9 9 9 9 8 6 7 5 5 5 5 3 3 1 1 1 1 1 2 2 2 6 6 8 10 9 7 7 6 7 9 10 12 10 8 7 8 10
9 9 8 9 9 9 7 7 6 5 5 5 4 3 3 2 2 2 2 2 3 5 8 8 8 9 9 9 7 8 9 8 10 9 8 7 9 10
9 8 8 9 11 9 6 7 7 7 4 4 5 3 2 2 3 2 3 3 4 5 5 5 4 4 6 8 9 9 9 8 8 8 9 7 9 11
9 9 7 9 10 12 12 12 10 9 8 5 4 5 6 4 4 3 3 3 2 4 3 5 4 7 7 6 9 9 8 7 6 7 7 7 8 9
8 8 7 7 9 8 10 10 12 12 8 8 7 8 5 7 4 4 4 3 4 3 3 3 5 7 6 6 11 10 9 7 6 6 7 9 8 8
9 9 8 8 8 8 7 8 9 10 11 8 9 8 7 5 8 6 5 4 2 3 4 4 4 4 4 6 11 12 10 7 7 7 9 10 10 9
8 7 8 9 11 13 8 8 8 8 9 12 11 8 9 10 9 5 4 4 4 4 6 4 4 3 3 4 6 12 13 9 9 9 9 10 8 8
4 4 12 7 9 12 8 8 8 10 8 7 6 7 8 7 13 9 6 6 4 2 6 7 4 3 2 2 4 5 6 11 11 12 14 13 15 8
3 5 4 4 8 7 9 7 9 6 6 6 6 5 6 7 7 10 10 9 8 8 4 8 5 4 5 2 3 5 6 4 6 6 12 16 16 12
4 2 2 7 9 7 10 7 3 3 3 4 4 5 6 7 8 8 10 10 9 10 7 11 4 7 5 3 5 4 5 6 7 6 4 5 10 14
4 3 6 8 10 10 8 9 7 5 4 5 7 6 5 4 5 5 9 10 10 11 8 11 9 6 6 6 4 5 3 6 8 7 6 7 8 7
5 4 3 1 7 7 4 3 3 4 6 5 5 5 2 3 4 5 5 5 6 6 10 12 12 11 8 8 7 7 9 6 7 8 8 9 8 9
2 1 3 0 2 3 3 4 3 3 4 3 4 4 5 5 6 4 5 6 6 5 7 6 11 12 11 11 9 10 8 7 7 8 8 9 9 11
1 1 1 1 0 1 2 3 4 4 4 5 5 5 5 6 5 6 5 7 7 7 8 7 6 7 7 10 14 9 9 9 8 8 8 9 10 10
2 4 3 4 4 3 4 4 3 3 5 5 3 3 5 6 6 5 5 6 7 7 8 7 9 10 12 12 4 15 12 9 8 9 8 8 9 10
3 3 3 3 4 4 4 3 4 4 4 3 3 4 6 6 5 5 5 6 6 6 6 7 8 10 12 11 7 3 12 3 5 7 7 8 9 8
2 2 2 3 3 4 4 4 5 4 4 4 3 3 3 3 4 4 4 5 4 3 5 2 1 2 1 2 4 3 6 17 12 3 4 3 5 6
2 3 3 3 4 3 3 3 3 3 3 3 2 2 2 2 2 3 3 3 3 2 1 1 1 1 2 3 3 7 4 2 7 13 17 12 4 5
1 0 2 2 3 3 4 4 4 4 3 4 4 3 5 3 2 2 2 2 3 2 2 2 1 3 3 4 6 6 9 5 2 5 8 16 18 18
Wind_Direction
219 213 207 210 205 207 205 194 211 256 267 231 241 230 227 237 243 245 224 196 180 162 203 205 217 220 239 254 267 278 278 287 287 281 277 270 264 264
217 214 215 217 217 205 204 202 205 220 247 191 231 236 222 238 230 226 227 200 140 162 161 194 229 236 246 258 270 278 287 293 291 285 275 263 250 250
206 208 218 205 213 212 200 200 212 210 245 238 222 235 245 248 249 228 210 213 181 185 164 191 230 243 256 268 278 290 293 299 296 290 276 257 240 205
206 208 223 208 223 212 200 207 213 204 212 244 219 211 217 213 210 190 151 187 166 195 185 198 226 232 243 259 272 287 292 295 293 289 268 226 173 162
198 203 218 212 216 211 212 206 206 200 205 211 224 185 128 175 118 138 143 177 197 189 201 221 230 233 239 252 249 270 284 290 293 289 243 182 163 160
192 205 212 208 216 210 215 197 196 185 208 220 229 229 207 184 181 174 177 158 169 197 210 217 217 228 242 247 244 254 265 279 292 284 244 187 171 165
198 194 203 213 206 208 194 202 188 192 181 209 233 219 205 201 227 173 205 176 206 209 219 217 224 229 239 247 258 252 265 263 276 278 252 198 183 169
203 196 181 201 216 205 201 178 191 194 199 201 224 228 227 204 191 215 211 188 229 197 197 260 231 251 248 222 222 233 246 250 269 269 238 208 192 181
235 210 179 187 202 207 216 206 190 200 187 189 216 222 227 210 184 194 211 204 220 160 175 258 215 246 241 234 204 220 219 214 233 245 233 196 199 187
221 211 202 179 189 192 204 219 214 208 222 211 214 225 222 192 194 193 202 220 218 210 165 238 203 235 251 240 199 202 205 208 205 217 204 191 187 198
227 225 221 196 186 180 184 218 230 225 213 215 215 232 210 186 174 158 186 184 238 233 201 240 213 236 241 248 225 194 185 189 194 195 203 209 169 172
203 182 235 239 167 169 193 201 216 234 216 208 217 235 230 209 179 197 187 204 205 256 209 211 221 200 258 232 244 213 188 182 197 200 191 191 178 179
182 214 187 200 225 195 221 209 223 224 205 216 221 222 210 212 207 215 209 207 211 227 189 195 207 193 232 213 202 192 199 176 199 198 201 189 177 190
186 200 150 180 146 149 194 223 203 241 243 227 221 231 237 230 220 213 222 221 225 236 182 195 215 204 206 222 240 196 197 204 196 202 183 180 200 207
132 129 122 71 262 244 204 208 202 201 198 229 237 234 235 239 213 205 217 222 231 233 216 201 218 209 213 221 212 212 200 195 191 192 184 187 191 192
80 86 60 263 262 288 289 239 241 218 223 210 229 242 227 213 216 214 240 218 220 237 230 217 223 224 221 224 224 216 209 211 191 203 199 206 202 204
356 325 123 40 287 295 277 264 240 214 219 224 213 235 237 239 241 213 231 238 234 242 245 222 221 228 234 230 224 226 213 213 204 200 195 215 213 205
354 360 15 144 160 306 296 284 260 236 219 218 206 218 243 247 238 224 215 242 237 238 243 234 209 222 221 232 218 227 224 220 212 196 199 212 223 213
38 33 19 22 28 29 10 355 334 290 253 235 228 234 234 238 228 232 228 234 245 251 246 245 234 217 224 233 202 224 229 222 214 205 202 206 230 230
27 33 32 4 4 4 359 339 326 326 314 264 227 230 231 229 232 227 232 241 249 252 256 250 234 229 233 232 220 88 20 257 235 219 220 221 235 256
42 22 12 10 8 1 2 346 331 324 316 315 290 265 258 242 255 243 254 245 261 266 272 270 128 322 6 132 93 47 51 58 64 23 360 283 252 236
43 47 42 45 42 19 360 6 8 359 343 351 344 347 341 328 289 291 267 254 236 221 314 69 360 43 68 69 80 114 122 80 93 86 56 43 328 317
133 246 55 43 26 20 33 35 44 40 18 12 17 354 0 340 344 316 300 288 261 166 134 121 52 50 60 85 111 105 102 101 65 62 51 34 37 30